MDT,Max TemperatureF,Mean TemperatureF,Min TemperatureF,Max Dew PointF,MeanDew PointF,Min DewpointF,Max Humidity, Mean Humidity, Min Humidity, Max Sea Level PressureIn, Mean Sea Level PressureIn, Min Sea Level PressureIn, Max VisibilityMiles, Mean VisibilityMiles, Min VisibilityMiles, Max Wind SpeedMPH, Mean Wind SpeedMPH, Max Gust SpeedMPH,PrecipitationIn, CloudCover, Events, WindDirDegrees
2013-6-1,66,53,40,43,41,38,93,65,37,30.30,30.18,30.01,10,10,10,9,4,12,0.00,2,,157
2013-6-2,66,56,46,50,47,41,100,76,52,29.99,29.84,29.75,10,7,2,25,9,31,1.61,7,Rain,333
2013-6-3,48,43,38,48,41,37,100,93,86,30.15,29.86,29.70,10,8,2,29,17,38,1.09,8,Rain,298
2013-6-4,49,42,34,39,38,34,100,83,65,30.31,30.22,30.11,10,9,4,14,5,17,0.14,7,Rain,342
2013-6-5,68,50,32,44,37,31,96,65,34,30.28,30.12,29.99,10,10,10,10,5,17,0.00,0,,112
2013-6-6,70,57,43,50,46,40,89,67,44,30.09,30.02,29.97,10,10,10,14,6,17,0.00,0,,128
2013-6-7,76,61,46,53,47,41,93,62,31,29.95,29.78,29.64,10,10,10,22,7,32,T,2,,286
2013-6-8,69,58,47,47,45,42,86,63,39,29.90,29.85,29.73,10,10,10,18,8,25,0.00,2,,309
2013-6-9,78,62,45,46,42,35,83,54,25,29.90,29.79,29.67,10,10,10,14,6,18,0.00,0,,293
2013-6-10,73,58,42,48,43,35,89,59,28,29.84,29.80,29.76,10,10,10,16,6,22,0.00,0,,98
2013-6-11,67,58,49,54,50,46,100,81,62,30.00,29.88,29.76,10,8,1,24,7,30,1.11,5,Rain,128
2013-6-12,75,61,47,56,51,46,100,72,44,30.07,29.97,29.85,10,10,10,18,9,23,0.00,2,,112
2013-6-13,61,55,49,55,50,46,96,88,80,30.04,29.94,29.84,10,9,2,18,8,24,0.20,6,Rain,286
2013-6-14,63,53,42,47,39,34,93,65,36,30.03,29.96,29.91,10,10,9,22,10,30,0.04,3,Rain,263
2013-6-15,70,56,42,44,36,30,76,50,23,30.03,29.99,29.93,10,10,10,17,8,22,0.00,0,,259
2013-6-16,68,54,40,47,43,36,83,64,45,30.14,30.09,30.03,10,10,10,13,5,17,0.00,1,,338
2013-6-17,77,61,44,52,48,42,92,67,41,30.13,30.05,29.94,10,10,10,18,9,23,0.00,1,,101
2013-6-18,85,69,53,60,53,48,83,58,32,29.98,29.82,29.65,10,10,0,18,10,24,T,1,,106
2013-6-19,78,64,49,58,52,47,93,71,49,29.74,29.59,29.48,10,10,10,58,11,81,0.07,1,Rain,144
2013-6-20,66,55,44,45,37,34,86,59,31,30.00,29.84,29.68,10,10,10,28,14,33,0.00,1,,234
2013-6-21,64,52,39,49,44,37,93,71,48,30.07,30.03,29.98,10,9,2,18,7,23,0.24,4,Rain,114
2013-6-22,60,49,38,49,44,37,100,81,62,30.05,29.99,29.94,10,10,10,10,5,25,0.03,2,,213
2013-6-23,72,55,38,47,42,37,92,63,33,29.94,29.82,29.71,10,10,10,14,6,21,0.00,0,,92
2013-6-24,81,63,45,55,50,43,86,61,36,29.72,29.62,29.53,10,10,9,35,9,41,0.03,2,Rain,147
2013-6-25,76,65,53,53,49,43,93,63,33,29.81,29.72,29.61,10,10,10,26,8,32,T,3,Rain,261
2013-6-26,76,65,53,52,49,45,83,60,36,30.05,29.92,29.80,10,10,10,24,9,31,T,2,,262
2013-6-27,78,64,49,51,48,45,83,60,36,30.21,30.13,30.06,10,10,10,13,3,17,0.00,1,,292
2013-6-28,84,67,50,57,51,46,86,59,32,30.23,30.19,30.14,10,10,10,13,6,17,0.00,0,,84
2013-6-29,85,70,54,60,55,51,93,64,34,30.17,30.10,30.03,10,10,10,14,5,17,0.00,0,,117
2013-6-30,86,70,54,61,56,51,93,62,30,30.11,30.05,30.02,10,10,10,16,5,18,0.00,0,,72